Skip Page Navigation
NASA JPL Caltech
NASA Logo - Jet Propulsion Laboratory + View the NASA Portal
+ Center for Near-Earth Object Studies
JPL Home Earth Solar System Stars & Galaxies Technology
JPL Solar System Dynamics
BODIES ORBITS EPHEMERIDES TOOLS PHYSICAL DATA DISCOVERY FAQ SITE MAP
IMPORTANT: The SSD Announcement email list is now available. Major changes are coming in the near future, including possible hostname and/or URL changes. To be notified of such changes, subscribe to this email list.

Please visit this page for more details.


JPL Small-Body Database Browser
Search: [ help ]  
324562 (2006 WZ116)
Classification: Main-belt Asteroid          SPK-ID: 2324562
Ephemeris | Orbit Diagram | Orbital Elements | Mission Design | Physical Parameters | Discovery Circumstances | Close-Approach Data ]

[ show orbit diagram ]
Orbital Elements at Epoch 2458600.5 (2019-Apr-27.0) TDB
Reference: JPL 8 (heliocentric ecliptic J2000)
 Element Value Uncertainty (1-sigma)   Units 
e .1289001370287997 7.4732e-08  
a 2.411869880551222 2.6086e-08 au
q 2.100979522452534 1.7865e-07 au
i 6.095391782648354 1.0788e-05 deg
node 2.267398352619487 6.4791e-05 deg
peri 310.3669107063876 7.7132e-05 deg
M 206.1203993577147 4.3679e-05 deg
tp 2459185.300570672022
(2020-Dec-01.80057067)
0.00016665 TDB
period 1368.135896916772
3.75
2.2196e-05
6.077e-08
d
yr
n .2631317552673642 4.269e-09 deg/d
Q 2.722760238649909 2.9449e-08 au
  Orbit Determination Parameters
   # obs. used (total)      119  
   data-arc span      8000 days (21.90 yr)  
   first obs. used      1997-03-15  
   last obs. used      2019-02-08  
   planetary ephem.      DE431  
   SB-pert. ephem.      SB431-N16  
   condition code      0  
   norm. resid. RMS      .53874  
   source      ORB  
   producer      Otto Matic  
   solution date      2019-Jul-14 10:21:07  

Additional Information
 Earth MOID = 1.09257 au 
 Jupiter MOID = 2.5458 au 
 T_jup = 3.500 
[ show covariance matrix ]

Ephemeris | Orbit Diagram | Orbital Elements | Mission Design | Physical Parameters | Discovery Circumstances | Close-Approach Data ]

Physical Parameter Table
Parameter Symbol Value Units Sigma Reference Notes
absolute magnitude H 17.5   n/a MPO427681  

324562 (2006 WZ116)          Discovered 2006-Nov-20 by Mt. Lemmon Survey at Mount Lemmon
Reference: 20120406/Numbers.arcLast Updated: 2012-04-09

[ show close-approach data ]
Alternate Designations
 2006 WZ116 = 2008 CA125 
Ephemeris | Orbit Diagram | Orbital Elements | Mission Design | Physical Parameters | Discovery Circumstances | Close-Approach Data ]
ABOUT SSD CREDITS/AWARDS PRIVACY/COPYRIGHT GLOSSARY LINKS
FirstGov 2019-Oct-17 17:22 UT
(server date/time)  
NASA Home Page
Site Manager:   Ryan S. Park
Webmaster  Alan B. Chamberlin